TimePDT,TemperatureF,Dew PointF,Humidity,Sea Level PressureIn,VisibilityMPH,Wind Direction,Wind SpeedMPH,Gust SpeedMPH,PrecipitationIn,Events,Conditions,WindDirDegrees,DateUTC
12:15 AM,66.2,37.4,35,30.45,10.0,West,9.2,-,N/A,,Clear,260,2013-06-28 07:15:00
12:35 AM,68.0,37.4,33,30.45,10.0,West,9.2,-,N/A,,Clear,270,2013-06-28 07:35:00
12:55 AM,64.4,39.2,40,30.45,10.0,West,12.7,-,N/A,,Clear,270,2013-06-28 07:55:00
1:15 AM,62.6,39.2,42,30.44,10.0,West,11.5,-,N/A,,Clear,270,2013-06-28 08:15:00
1:35 AM,64.4,39.2,40,30.45,10.0,NW,5.8,-,N/A,,Clear,310,2013-06-28 08:35:00
1:55 AM,64.4,39.2,40,30.45,10.0,West,9.2,-,N/A,,Clear,280,2013-06-28 08:55:00
2:15 AM,62.6,41.0,45,30.45,10.0,West,10.4,-,N/A,,Clear,280,2013-06-28 09:15:00
2:35 AM,62.6,41.0,45,30.44,10.0,WNW,6.9,-,N/A,,Clear,290,2013-06-28 09:35:00
2:55 AM,59.0,41.0,51,30.44,10.0,WNW,3.5,-,N/A,,Clear,300,2013-06-28 09:55:00
3:15 AM,60.8,41.0,48,30.43,10.0,West,6.9,-,N/A,,Clear,280,2013-06-28 10:15:00
3:35 AM,60.8,41.0,48,30.43,10.0,West,10.4,-,N/A,,Clear,270,2013-06-28 10:35:00
3:55 AM,60.8,39.2,45,30.43,10.0,West,9.2,-,N/A,,Clear,280,2013-06-28 10:55:00
4:15 AM,59.0,41.0,51,30.43,10.0,West,11.5,-,N/A,,Clear,280,2013-06-28 11:15:00
4:35 AM,59.0,41.0,51,30.43,10.0,WNW,6.9,-,N/A,,Clear,290,2013-06-28 11:35:00
4:55 AM,60.8,39.2,45,30.43,10.0,West,6.9,-,N/A,,Clear,280,2013-06-28 11:55:00
5:55 AM,57.2,39.2,51,30.43,10.0,West,5.8,-,N/A,,Clear,270,2013-06-28 12:55:00
6:15 AM,59.0,41.0,51,30.44,10.0,West,4.6,-,N/A,,Clear,280,2013-06-28 13:15:00
6:35 AM,59.0,41.0,51,30.43,10.0,West,11.5,-,N/A,,Clear,270,2013-06-28 13:35:00
6:55 AM,60.8,41.0,48,30.43,10.0,West,5.8,17.3,N/A,,Clear,280,2013-06-28 13:55:00
7:15 AM,64.4,42.8,45,30.44,10.0,WNW,3.5,-,N/A,,Clear,290,2013-06-28 14:15:00
7:35 AM,68.0,41.0,37,30.44,10.0,West,4.6,-,N/A,,Clear,280,2013-06-28 14:35:00
7:55 AM,71.6,41.0,33,30.44,10.0,WNW,4.6,-,N/A,,Clear,300,2013-06-28 14:55:00
8:15 AM,75.2,39.2,27,30.43,10.0,West,9.2,-,N/A,,Clear,270,2013-06-28 15:15:00
8:35 AM,77.0,37.4,24,30.44,10.0,NNW,3.5,-,N/A,,Clear,330,2013-06-28 15:35:00
8:55 AM,78.8,37.4,23,30.43,10.0,Calm,Calm,-,N/A,,Clear,0,2013-06-28 15:55:00
9:15 AM,78.8,35.6,21,30.43,10.0,Calm,Calm,-,N/A,,Clear,0,2013-06-28 16:15:00
9:35 AM,80.6,35.6,20,30.42,10.0,Calm,Calm,-,N/A,,Clear,0,2013-06-28 16:35:00
9:55 AM,80.6,35.6,20,30.42,10.0,Calm,Calm,-,N/A,,Clear,0,2013-06-28 16:55:00
10:15 AM,82.4,37.4,20,30.42,10.0,SSE,3.5,-,N/A,,Clear,150,2013-06-28 17:15:00
10:35 AM,84.2,35.6,18,30.41,10.0,SE,6.9,-,N/A,,Clear,130,2013-06-28 17:35:00
10:55 AM,86.0,33.8,15,30.40,10.0,East,10.4,-,N/A,,Clear,100,2013-06-28 17:55:00
11:15 AM,86.0,33.8,15,30.40,10.0,ESE,8.1,-,N/A,,Clear,110,2013-06-28 18:15:00
11:35 AM,86.0,32.0,14,30.40,10.0,East,8.1,19.6,N/A,,Clear,100,2013-06-28 18:35:00
11:55 AM,87.8,32.0,14,30.40,10.0,East,13.8,19.6,N/A,,Clear,100,2013-06-28 18:55:00
12:15 PM,87.8,33.8,15,30.39,10.0,East,13.8,21.9,N/A,,Clear,100,2013-06-28 19:15:00
12:35 PM,89.6,32.0,13,30.38,10.0,East,15.0,24.2,N/A,,Clear,100,2013-06-28 19:35:00
12:55 PM,89.6,32.0,13,30.38,10.0,ESE,15.0,26.5,N/A,,Clear,110,2013-06-28 19:55:00
1:15 PM,89.6,32.0,13,30.37,10.0,ESE,13.8,24.2,N/A,,Clear,110,2013-06-28 20:15:00
1:35 PM,91.4,33.8,13,30.37,10.0,ESE,10.4,20.7,N/A,,Clear,120,2013-06-28 20:35:00
1:55 PM,89.6,32.0,13,30.36,10.0,SE,4.6,21.9,N/A,,Clear,130,2013-06-28 20:55:00
2:15 PM,86.0,32.0,14,30.35,10.0,East,8.1,19.6,N/A,,Clear,90,2013-06-28 21:15:00
2:35 PM,86.0,32.0,14,30.35,10.0,Calm,Calm,-,N/A,,Scattered Clouds,0,2013-06-28 21:35:00
2:55 PM,86.0,33.8,15,30.34,10.0,South,6.9,-,N/A,,Mostly Cloudy,190,2013-06-28 21:55:00
3:15 PM,86.0,32.0,14,30.34,10.0,South,4.6,-,N/A,,Scattered Clouds,180,2013-06-28 22:15:00
3:35 PM,84.2,33.8,16,30.34,10.0,West,12.7,-,N/A,,Scattered Clouds,260,2013-06-28 22:35:00
3:55 PM,82.4,30.2,15,30.34,10.0,WSW,11.5,19.6,N/A,,Scattered Clouds,240,2013-06-28 22:55:00
4:15 PM,82.4,26.6,13,30.33,10.0,WSW,8.1,18.4,N/A,,Mostly Cloudy,240,2013-06-28 23:15:00
4:35 PM,82.4,32.0,16,30.34,10.0,WSW,11.5,21.9,N/A,,Mostly Cloudy,240,2013-06-28 23:35:00
4:55 PM,82.4,32.0,16,30.35,10.0,SSE,24.2,32.2,N/A,,Mostly Cloudy,160,2013-06-28 23:55:00
5:15 PM,82.4,24.8,12,30.33,10.0,NW,10.4,33.4,N/A,,Mostly Cloudy,310,2013-06-29 00:15:00
5:35 PM,80.6,24.8,13,30.37,10.0,North,-9999.0,-,N/A,,Overcast,0,2013-06-29 00:35:00
5:55 PM,82.4,23.0,11,30.32,10.0,East,11.5,24.2,N/A,,Mostly Cloudy,90,2013-06-29 00:55:00
6:15 PM,80.6,26.6,14,30.33,10.0,SW,15.0,-,N/A,,Scattered Clouds,220,2013-06-29 01:15:00
6:35 PM,80.6,28.4,15,30.33,10.0,West,6.9,26.5,N/A,,Scattered Clouds,260,2013-06-29 01:35:00
6:55 PM,82.4,32.0,16,30.32,10.0,SW,8.1,-,N/A,,Scattered Clouds,230,2013-06-29 01:55:00
7:15 PM,80.6,39.2,23,30.33,10.0,West,16.1,21.9,N/A,,Clear,280,2013-06-29 02:15:00
7:35 PM,80.6,35.6,20,30.33,10.0,SW,11.5,-,N/A,,Clear,220,2013-06-29 02:35:00
7:55 PM,78.8,39.2,24,30.33,10.0,SSW,15.0,25.3,N/A,,Clear,210,2013-06-29 02:55:00
8:15 PM,77.0,39.2,26,30.35,10.0,South,13.8,23.0,N/A,,Clear,190,2013-06-29 03:15:00
8:35 PM,77.0,42.8,29,30.34,10.0,SSW,16.1,31.1,N/A,,Clear,210,2013-06-29 03:35:00
8:55 PM,77.0,32.0,19,30.34,10.0,SSW,17.3,21.9,N/A,,Clear,210,2013-06-29 03:55:00
9:15 PM,75.2,41.0,29,30.33,10.0,NW,8.1,19.6,N/A,,Clear,320,2013-06-29 04:15:00
9:35 PM,73.4,41.0,31,30.35,10.0,Calm,Calm,-,N/A,,Scattered Clouds,0,2013-06-29 04:35:00
9:55 PM,71.6,41.0,33,30.35,10.0,West,8.1,-,N/A,,Clear,270,2013-06-29 04:55:00
10:15 PM,71.6,39.2,31,30.35,10.0,Calm,Calm,-,N/A,,Clear,0,2013-06-29 05:15:00
10:35 PM,68.0,39.2,35,30.36,10.0,WNW,8.1,-,N/A,,Clear,290,2013-06-29 05:35:00
10:55 PM,64.4,39.2,40,30.36,10.0,Calm,Calm,-,N/A,,Clear,0,2013-06-29 05:55:00
11:15 PM,62.6,39.2,42,30.36,10.0,Calm,Calm,-,N/A,,Clear,0,2013-06-29 06:15:00
11:35 PM,62.6,37.4,39,30.36,10.0,Calm,Calm,-,N/A,,Clear,0,2013-06-29 06:35:00
11:55 PM,60.8,37.4,42,30.37,10.0,ESE,5.8,-,N/A,,Clear,120,2013-06-29 06:55:00